DW5444 Weather Reports


time (UTC)temp
C
wind
direction
speed
KPH
gust
KPH
rain 1hr
cm
rain 24hr
cm
rain mn
cm
humidity
%
barometer
mb
20260504184509 22 294 4.8 8.0 0.00 0.00 0.00 37 1007.8
20260504183007 21 285 4.8 11.3 0.00 0.00 0.00 43 1007.9
20260504181511 21 285 6.4 12.9 0.00 0.00 0.00 41 1007.9
20260504180003 21 294 4.8 9.7 0.00 0.00 0.00 44 1007.9
20260504174503 21 308 3.2 9.7 0.00 0.00 0.00 40 1008.0
20260504173102 21 260 4.8 9.7 0.00 0.00 0.00 42 1007.9
20260504171557 20 274 4.8 9.7 0.00 0.00 0.00 43 1008.0
20260504081558 10 79 6.4 8.0 0.00 0.00 0.00 65 1008.3
20260504044548 12 80 4.8 6.4 0.00 0.00 0.00 60 1008.3
20260504043043 12 79 4.8 6.4 0.00 0.00 0.00 60 1008.4
20260504041542 12 74 3.2 6.4 0.00 0.00 0.00 61 1008.1
20260504040059 12 83 4.8 6.4 0.00 0.00 0.00 61 1008.2
20260504034605 13 80 4.8 4.8 0.00 0.00 0.00 59 1008.0
20260504033041 13 82 4.8 6.4 0.00 0.00 0.00 59 1007.8
20260504031540 13 97 4.8 6.4 0.00 0.00 0.00 59 1007.8
20260504030053 15 90 3.2 4.8 0.00 0.00 0.00 57 1007.7
20260504024539 17 54 3.2 4.8 0.00 0.00 0.00 51 1007.7
20260504023038 20 57 4.8 6.4 0.00 0.00 0.00 40 1007.8
20260504021538 21 85 4.8 6.4 0.00 0.00 0.00 37 1007.8
20260504020034 22 49 8.0 11.3 0.00 0.00 0.00 32 1008.0
20260504014534 23 23 1.6 8.0 0.00 0.00 0.00 33 1008.2
20260504013045 23 350 3.2 8.0 0.00 0.00 0.00 32 1008.4
20260504011531 23 38 6.4 11.3 0.00 0.00 0.00 29 1008.5
20260504010028 23 40 6.4 12.9 0.00 0.00 0.00 31 1008.6
20260504004528 23 6 4.8 12.9 0.00 0.00 0.00 31 1008.8
20260504003027 24 35 6.4 14.5 0.00 0.00 0.00 29 1008.8
20260504001525 24 331 8.0 20.9 0.00 0.00 0.00 29 1008.9
20260504000022 24 329 6.4 17.7 0.00 0.00 0.00 28 1009.0
20260503234522 24 316 8.0 16.1 0.00 0.00 0.00 30 1009.1
20260503233020 24 328 6.4 17.7 0.00 0.00 0.00 28 1009.2
20260503231520 24 310 3.2 16.1 0.00 0.00 0.00 31 1009.4
20260503230014 25 81 6.4 16.1 0.00 0.00 0.00 28 1009.7
20260503224513 25 312 4.8 11.3 0.00 0.00 0.00 31 1009.8
20260503223012 24 59 6.4 14.5 0.00 0.00 0.00 29 1010.0
20260503221509 24 301 8.0 14.5 0.00 0.00 0.00 31 1010.2
20260503220007 24 341 8.0 19.3 0.00 0.00 0.00 33 1010.4
20260503214508 25 47 6.4 22.5 0.00 0.00 0.00 30 1010.6
20260503213004 24 31 6.4 17.7 0.00 0.00 0.00 32 1010.6
20260503211602 24 59 11.3 16.1 0.00 0.00 0.00 30 1010.9
20260503210057 24 360 6.4 14.5 0.00 0.00 0.00 33 1011.0
20260503204602 23 6 6.4 16.1 0.00 0.00 0.00 33 1011.3
20260503203054 23 296 6.4 16.1 0.00 0.00 0.00 37 1011.4
20260503201551 23 47 8.0 16.1 0.00 0.00 0.00 36 1011.5
20260503200048 23 52 8.0 14.5 0.00 0.00 0.00 37 1011.7
20260503194547 22 360 8.0 17.7 0.00 0.00 0.00 40 1011.8
20260503193052 22 51 6.4 19.3 0.00 0.00 0.00 42 1012.0
20260503191543 21 308 6.4 12.9 0.00 0.00 0.00 44 1012.1
20260503190045 21 317 6.4 12.9 0.00 0.00 0.00 45 1012.2